Meymac - Mt Bessou (19) - I

Date : 08/04/2012

Place Nom Licence Catégorie Club Temps CN à J-60 Points Différence Nouveau CN
1 DROIN Solène 17925 D16 4201RA 0:33:18 4634 4902 +268 4652
2 BODY Mathilde 10184 D16 7305RA 0:33:26 5413 4882 -531 5053
3 GUILLEMET Océane 22819 D16 3318AQ 0:33:43 3212 4841 +1629 4361
4 HABERKORN Chloé 10396 D16 2105BO 0:35:19 5413 4622 -791 5358
5 BEAUVIR Maëlle 12709 D16 3502BR 0:35:48 4090 4560 +470 4536
6 BORNARD Julie 9402 D16 7305RA 0:36:48 4337 4436 +99 4240
7 ROULLEAUX Julie 11559 D16 9105IF 0:36:48 5407 4436 -971 4933
8 GIRARD Lucille 19689 D16 3705CE 0:37:43 4776 4328 -448 4805
9 RIVOLLIER Isaline 22451 D16 4201RA 0:37:50 3898 4315 +417 4140
10 BERRARD Anna 19762 D16 2607RA 0:41:26 3885 3940 +55 3859
11 FOL Loreline 16393 D16 3105MP 0:42:05 3325 3879 +554 3422
12 LUTHRINGER Coline 10091 D16 8809LO 0:42:13 4352 3867 -485 4161
13 CHARDOT Marion 22315 D16 7807IF 0:42:40 3921 3826 -95 3916
14 VALETTE Marion 10430 D16 6913RA 0:43:55 3633 3717 +84 3643
15 PICAZO Marie 16555 D16 8405PR 0:44:04 4259 3704 -555 3913
16 DUQUENNE Audrey 23885 D16 5907NO 0:44:28 3266 3671 +405 3630
17 PETER-JAN Lucile 19276 D16 3705CE 0:45:02 4565 3625 -940 4523
18 DELENNE Camilla 13800 D16 1307PR 0:45:08 3808 3617 -191 3741
19 PINZELLI Tamara 23551 D16 1905LI 0:51:50 2776 3149 +373 3210
20 MOUSSU Sarah 22301 D16 3318AQ 0:52:24 2527 3115 +588 3051
21 BLANCHARD Grégorine 11530 D21 3705CE 0:53:50 2654 3032 +378 2898
22 BONORA Marine 11542 D16 6906RA 0:59:25 3743 2747 -996 3571
23 LEMERCIER Victoire 11454 D16 5407LO 0:59:53 3643 2726 -917 3539
24 MASSIN Margot 22860 D16 5907NO 1:07:50 2653 2406 -247 2987
25 VERNOTTE Louise 23552 D16 1905LI 1:12:51 2917 2241 -676 3106
PENAUD Romane 14110 D16 1905LI abandon 0 0 1666